Location: Winthrop
(48.4780°N, 120.1850°W)
Time: 00:56:19
(UTC-07:00)

S-56A Canister/Altair - Pass Details

Date: 07 June 2023
Orbit: 640 x 2489 km, 38.9° (Epoch: 29 September)

Event Time Altitude Azimuth Distance (km) Brightness Sun altitude
Rises 21:58:58 0° 246° (WSW) 5,261 12.0 -8.1°
Reaches altitude 10° 22:02:10 10° 242° (WSW) 4,473 11.6 -8.4°
Maximum altitude 22:14:41 56° 169° (S) 2,749 10.0 -9.7°
Drops below altitude 10° 22:29:08 10° 98° (E) 5,108 11.3 -11.1°
Sets 22:33:04 0° 95° (E) 6,031 11.7 -11.5°
